Weather History for KFST - August, 2013

Change the Weather History Date:

Monday, August 5, 2013

  Actual Average Record
Temperature  
Mean Temperature 86 °F -  
Max Temperature 100 °F 93 °F 102 °F (2003)
Min Temperature 75 °F 69 °F 66 °F (1998)
Cooling Degree Days 22    
Growing Degree Days 36 (Base 50)    
Moisture  
Dew Point 57 °F    
Average Humidity 38    
Maximum Humidity 57    
Minimum Humidity 21    
Precipitation  
Precipitation 0.00 in - - ()
Sea Level Pressure  
Sea Level Pressure 29.84 in    
Wind  
Wind Speed 12 mph (SSE)    
Max Wind Speed 16 mph    
Max Gust Speed 24 mph    
Visibility 10 miles    
Events      
Averages and records for this station are not official NWS values.
T = Trace of Precipitation, MM = Missing Value Source: NWS Daily Summary

Daily Weather History Graph

Daily Weather History Graph

Search for Another Location

Airport or City:

Trip Planner

Search our weather history database for the weather conditions in past years. The results will help you decide how hot, cold, wet, or windy it might be!

Date:

Astronomy

Aug. 05, 2013 Rise Set
Actual Time 7:11 AM CDT 8:43 PM CDT
Civil Twilight 6:45 AM CDT 9:09 PM CDT
Nautical Twilight 6:14 AM CDT 9:40 PM CDT
Astronomical Twilight 5:42 AM CDT 10:12 PM CDT
Moon 6:07 AM CDT (8/5) 7:47 PM CDT (8/5)
Length of Visible Light 14h 23m
Length of Day
13h 31m
Waning Crescent, 1% of the Moon is Illuminated
Aug 5
Waning Crescent
Aug 6
New
Aug 14
First Quarter
Aug 20
Full
Aug 28
Last Quarter

Hourly Weather History & Observations

Time (CDT) Temp. Heat Index Dew Point Humidity Pressure Visibility Wind Dir Wind Speed Gust Speed Precip Events Conditions
12:53 AM 82.0 °F 82.1 °F 59.0 °F 45% 29.87 in 10.0 mi SE 15.0 mph 20.7 mph N/A   Clear
1:53 AM 81.0 °F 81.3 °F 59.0 °F 47% 29.86 in 10.0 mi SSE 15.0 mph 23.0 mph N/A   Clear
2:53 AM 80.1 °F 80.7 °F 59.0 °F 48% 29.86 in 10.0 mi SSE 13.8 mph - N/A   Clear
3:53 AM 80.1 °F 80.7 °F 59.0 °F 48% 29.86 in 10.0 mi SSE 13.8 mph - N/A   Clear
4:53 AM 78.1 °F - 59.0 °F 52% 29.86 in 10.0 mi SSE 10.4 mph - N/A   Clear
5:53 AM 75.9 °F - 59.0 °F 56% 29.87 in 10.0 mi SSE 8.1 mph - N/A   Clear
6:53 AM 75.0 °F - 59.0 °F 57% 29.88 in 10.0 mi SSE 11.5 mph - N/A   Clear
7:53 AM 75.0 °F - 59.0 °F 57% 29.90 in 10.0 mi South 11.5 mph - N/A   Clear
8:53 AM 79.0 °F - 60.1 °F 52% 29.91 in 10.0 mi South 12.7 mph - N/A   Clear
9:53 AM 84.0 °F 84.0 °F 60.1 °F 44% 29.90 in 10.0 mi South 12.7 mph 18.4 mph N/A   Clear
10:53 AM 89.1 °F 88.2 °F 59.0 °F 36% 29.90 in 10.0 mi South 12.7 mph - N/A   Clear
11:53 AM 93.0 °F 91.7 °F 57.0 °F 30% 29.88 in 10.0 mi SW 6.9 mph - N/A   Clear
12:53 PM 95.0 °F 93.4 °F 55.9 °F 27% 29.87 in 10.0 mi SSW 8.1 mph - N/A   Clear
1:53 PM 93.9 °F 92.0 °F 55.0 °F 27% 29.84 in 10.0 mi South 4.6 mph - N/A   Scattered Clouds
2:53 PM 96.1 °F 93.5 °F 53.1 °F 23% 29.82 in 10.0 mi Variable 3.5 mph - N/A   Partly Cloudy
3:53 PM 98.1 °F 95.7 °F 53.1 °F 22% 29.79 in 10.0 mi Variable 3.5 mph - N/A   Mostly Cloudy
4:53 PM 98.1 °F - 52.0 °F 21% 29.76 in 10.0 mi SSE 4.6 mph - N/A   Partly Cloudy
5:53 PM 97.0 °F 95.3 °F 55.9 °F 25% 29.75 in 10.0 mi SSE 11.5 mph 18.4 mph N/A   Overcast
6:53 PM 96.1 °F 94.1 °F 55.0 °F 25% 29.75 in 10.0 mi SSE 11.5 mph - N/A   Mostly Cloudy
7:53 PM 93.9 °F 92.0 °F 55.0 °F 27% 29.77 in 10.0 mi SE 8.1 mph - N/A   Mostly Cloudy
8:53 PM 91.9 °F 90.0 °F 55.0 °F 29% 29.78 in 10.0 mi SE 15.0 mph 20.7 mph N/A   Clear
9:53 PM 88.0 °F 86.5 °F 55.9 °F 34% 29.79 in 10.0 mi SSE 15.0 mph 23.0 mph N/A   Clear
10:53 PM 87.1 °F 85.3 °F 55.0 °F 33% 29.79 in 10.0 mi SE 15.0 mph - N/A   Clear
11:53 PM 84.9 °F 83.6 °F 55.0 °F 36% 29.79 in 10.0 mi SSE 16.1 mph 24.2 mph N/A   Clear